This demonstration page uses our WeatherBlox Daily Observations layout. Learn more.

Left ArrowRight Arrow

47.50024, -111.30081

Hourly Observations for September 29, 2022

Temp ( °F °C ) Dew Point ( °F °C ) Humidity (%) Winds ( mph kmh ) Pressure ( in mb ) Visibility ( mi km ) Precip ( " mm )
12:53 am 00:53 Clear 70 21.1 30 -1.1 23 23 SSE 12 19 29.84 1010 10 16 0.00 0.00
1:53 am 01:53 Clear 72 22.2 29 -1.7 20 20 S 13 20 29.81 1010 10 16 0.00 0.00
2:53 am 02:53 Clear 71 21.7 29 -1.7 21 21 S 12 19 29.81 1009 10 16 0.00 0.00
3:53 am 03:53 Clear 72 22.2 29 -1.7 20 20 S 14 22 29.80 1009 10 16 0.00 0.00
4:53 am 04:53 Clear 71 21.7 30 -1.1 22 22 SW 14 22 29.81 1010 10 16 0.00 0.00
5:53 am 05:53 Clear 64 17.8 33 0.6 31 31 SSW 10 17 29.83 1010 10 16 0.00 0.00
6:53 am 06:53 Clear 66 18.9 35 1.7 32 32 SE 12 19 29.84 1010 10 16 0.00 0.00
7:53 am 07:53 Mostly Cloudy 68 20 35 1.7 30 30 S 10 17 29.87 1012 10 16 0.00 0.00
8:53 am 08:53 Mostly Cloudy 70 21.1 36 2.2 29 29 VRB 3 6 29.87 1012 9 14 0.00 0.00
9:53 am 09:53 Sunny 70 21.1 37 2.8 30 30 Calm 29.87 1011 10 16 0.00 0.00
10:53 am 10:53 Sunny 74 23.3 38 3.3 27 27 Calm 29.88 1012 10 16 0.00 0.00
11:53 am 11:53 Mostly Sunny 74 23.3 36 2.2 25 25 NNW 6 9 29.88 1012 10 16 0.00 0.00
12:53 pm 12:53 Mostly Sunny 75 23.9 38 3.3 26 26 N 10 17 29.83 1010 10 16 0.01 0.13
1:53 pm 13:53 Sunny 77 25 38 3.3 24 24 NE 7 11 29.80 1009 10 16 0.00 0.00
2:41 pm 14:41 Cloudy with Nearby Thunderstorms 66 18.9 41 5 40 40 W 22 35 29.76 1008 10 16 0.01 0.13
2:53 pm 14:53 Windy with Storms Likely 58 14.4 49 9.4 72 72 W 24 39 29.85 1011 6 10 0.02 0.51
3:11 pm 15:11 Cloudy with Nearby Thunderstorms 58 14.4 50 10 75 75 W 17 28 29.86 1011 10 16 0.01 0.13
3:22 pm 15:22 Cloudy with Thunderstorms 57 13.9 51 10.6 80 80 WSW 13 20 29.90 1013 10 16 0.01 0.13
3:35 pm 15:35 Cloudy with Rain 57 13.9 50 10 77 77 WSW 15 24 29.90 1013 8 13 0.01 0.13
3:53 pm 15:53 Cloudy with Light Rain 56 13.3 51 10.6 84 84 WSW 8 13 29.94 1014 10 16 0.02 0.51
4:53 pm 16:53 Cloudy with Light Rain 57 13.9 51 10.6 80 80 NW 9 15 29.94 1014 10 16 0.01 0.25
5:53 pm 17:53 Mostly Sunny 63 17.2 49 9.4 60 60 WNW 6 9 29.92 1013 10 16 0.01 0.13
6:53 pm 18:53 Partly Cloudy 58 14.4 50 10 75 75 NNE 3 6 29.95 1014 10 16 0.00 0.00
7:53 pm 19:53 Partly Cloudy 56 13.3 50 10 80 80 WNW 7 11 29.99 1016 10 16 0.00 0.00
8:53 pm 20:53 Cloudy 55 12.8 50 10 83 83 W 6 9 29.99 1016 10 16 0.00 0.00
9:53 pm 21:53 Cloudy 54 12.2 50 10 86 86 N 3 6 30.01 1016 10 16 0.00 0.00
10:53 pm 22:53 Cloudy with Light Rain 53 11.7 51 10.6 93 93 W 8 13 30.00 1016 10 16 0.01 0.25
11:53 pm 23:53 Partly Cloudy 52 11.1 50 10 93 93 W 8 13 30.01 1016 10 16 0.01 0.13

Powered by AerisWeather